McDowell, VA (24458)

1:03 AM EST on February 11, 2016 (GMT -0500)
KVAMONTE3 | | Change Station
CLOSE
Current Station
Personal Weather Station
Location: Monterey, VA
Elevation: 2924 ft
Nearby Weather Stations
Active Advisory: Wind Chill Advisory

Elev 2924 ft 38.41 °N, 79.58 °W | Updated 3 minutes ago

Snow
Snow
8.6 °F
Feels Like -5 °F
N
10.0
Wind Variable Wind from WSW
Gusts 10.0 mph

Today
High -- | Low -- °F
--% Chance of Precip.
Yesterday
High -- | Low -- °F
Precip. -- in
Pressure 29.73 in
Visibility 4.0 miles
Clouds Scattered Clouds 300 ft
Mostly Cloudy 800 ft
Overcast 2100 ft
Windchill -5 °F
Dew Point 0 °F
Humidity 68%
Rainfall 0.00 in
Snow Depth Not available.
7:13 AM 5:51 PM
Waxing Crescent, 9% visible
METAR KHSP 110555Z AUTO 29019G34KT 4SM -SN SCT003 BKN008 OVC021 M15/M17 A2973 RMK AO2 T11471169 11121 21147
Pressure 29.73 in
Visibility 4.0 miles
Clouds Scattered Clouds 300 ft
Mostly Cloudy 800 ft
Overcast 2100 ft
Windchill -5 °F
Dew Point 0 °F
Humidity 68%
Rainfall 0.00 in
Snow Depth Not available.
7:13 AM 5:51 PM
Waxing Crescent, 9% visible
METAR KHSP 110555Z AUTO 29019G34KT 4SM -SN SCT003 BKN008 OVC021 M15/M17 A2973 RMK AO2 T11471169 11121 21147

10-Day Weather Forecast

Almanac

Astronomy

Feb. 11, 2016 Rise Set
Actual Time
Civil Twilight
Nautical Twilight
Astronomical Twilight
Moon
Length of Visible Light
Length of Day
Tomorrow will be .
, % of the Moon is Illuminated

Today's Extremes

State Highs State Lows

Community

WunderPhotos

Upload Photos

1,892,028 photos uploaded!

WunderBlog® & News

Nearby

Air Quality

  Air Quality AQ Index Pollutant
Not available.

Snow Depth

Station Depth Elevation

Earthquake Activity

City Distance Mag. Time & Date
Minimum magnitude displayed is 2.5.

Coastal Water Temperatures

Place Temperature

Stations

Nearby Weather Stations

Station Location Temp. Windchill Dew Point Humidity Wind Precip. Elev Updated Type
                   

Watches & Warnings

Wind Chill Advisory
Issued: 6:30 PM EST Feb. 10, 2016 – National Weather Service

... Wind Chill Advisory remains in effect from midnight tonight to
10 am EST Thursday...

* hazard types... wind chills.

* Wind chill... between 10 and 20 below zero tonight.

* Timing... wind chills will drop below 10 below zero tonight and
are expected to rise into the single digits below zero during
the day Thursday.

* Impacts... wind chills less than 10 below zero will be
dangerous if proper precautions are not taken.

* Winds... west 15 to 20 mph with gusts up to 30 mph.

* Temperatures... single digits to mid teens.

Precautionary/preparedness actions...

A Wind Chill Advisory means that very cold air and strong winds
will combine to generate low wind chills. This will result in
frost bite and lead to hypothermia if precautions are not taken.
If you must venture outdoors... make sure you wear a hat and
gloves.